Weather Service Report


278 
ASUS41 KAKQ 261314
RWRAKQ

REGIONAL WEATHER ROUNDUP
NATIONAL WEATHER SERVICE WAKEFIELD VA
900 AM EDT SUN APR 26 2015

Note: "fair" indicates few or no clouds below 12,000 feet with no
significant weather and/or obstructions to visibility. * = Denotes
station may not report precipitation (e.g., rain,snow,etc.),
thunder or fog.

VAZ042-051-052>054-056-261400-
NORTHERN VIRGINIA
  
CITY           SKY/WX    TMP DP  RH WIND       PRES   REMARKS
WASH NATIONAL  PTSUNNY   50  39  66 N8        29.71R                  
DULLES         PTSUNNY   46  37  71 N9        29.72R                  
FORT BELVOIR   PTSUNNY   47  38  70 VRB6      29.71R                  
QUANTICO       CLOUDY    48  42  80 NW6       29.72R                  
FREDERICKSBRG* CLOUDY    45  45  98 NW5       29.72R                  
STAFFORD*      CLOUDY    45  32  60 NW5       29.76R                  
WARRENTON      CLOUDY    47  43  86 N3        29.72R                  
CULPEPER*      PTSUNNY   46  43  87 N6        29.72S                  
MANASSAS*      PTSUNNY   46  41  81 N7        29.72R                  
LEESBURG*      MOSUNNY   48  37  66 N9G16     29.73R                  
WINCHESTER     CLOUDY    48  36  61 N5        29.73R                  
FRONT ROYAL*   CLOUDY    43  39  87 CALM      29.73R                  
LURAY*         CLOUDY    45  43  93 NE7       29.72S                  
$$

VAZ048-049-060>072-079>083-261400-
CENTRAL AND SOUTH CENTRAL VIRGINIA
  
CITY           SKY/WX    TMP DP  RH WIND       PRES   REMARKS
RICHMOND       CLOUDY    46  42  86 N7        29.70R                  
CHESTERFIELD*  CLOUDY    45  34  65 N3        29.72R                  
PETERSBURG*    LGT RAIN  46  45  93 N3        29.70S                  
HANOVER        CLOUDY    44  42  93 CALM      29.72R                  
TAPPAHANNOCK*  DRIZZLE   46  43  86 CALM      29.70R                  
QUINTON*       CLOUDY    45  44  97 MISG      29.69S                  
CHARLOTTSVILLE CLOUDY    42  40  92 CALM      29.71R                  
GORDONSVILLE*  CLOUDY    42  39  89 NE6       29.71S                  
ORANGE*        CLOUDY    43  41  93 N3        29.73R                  
LOUISA*        CLOUDY    43  41  93 N5        29.70R                  
BUMPASS*       CLOUDY    43  41  93 CALM      29.72R                  
FARMVILLE*     DRIZZLE   45  45 100 N5        29.70R                  
CREWE*         CLOUDY    43  42  95 N3        29.69F                  
FORT PICKETT*  CLOUDY    44  43  98 N7        29.69S                  
CHASE CITY*    CLOUDY    46  46 100 CALM      29.69S                  
CLARKSVILLE*   CLOUDY    43  43 100 N8        29.69R                  
SOUTH HILL*    CLOUDY    44  43  97 N7        29.74R                  
LAWRENCEVILLE* CLOUDY    45  44  98 CALM      29.68S                  
EMPORIA*         N/A     45  45 100 N5        29.70R                  
$$

VAZ088>098-261400-
SOUTHEAST VIRGINIA
  
CITY           SKY/WX    TMP DP  RH WIND       PRES   REMARKS
NORFOLK        RAIN      48  43  82 NE10      29.66R                  
VIRGINIA BEACH LGT RAIN  49  45  86 N8        29.65R                  
NORFOLK NAVAL  LGT RAIN  50  43  77 NE8       29.68R                  
WEST POINT*    CLOUDY    49  46  92 NW3       29.70R                  
SALUDA*        CLOUDY    46  42  86 CALM      29.68R                  
NEWPORT NEWS   LGT RAIN  50  44  80 N3        29.68R                  
LANGLEY AFB    DRIZZLE   48  45  87 NE9       29.66S                  
FORT EUSTIS    CLOUDY    47  47 100 N6        29.66R                  
WILLIAMSBURG*  CLOUDY    48  48 100 CALM      29.70R                  
HR EXEC AP*    CLOUDY    48  45  87 N3        29.68R                  
FRANKLIN*      CLOUDY    46  45  95 N5        29.68R                  
WAKEFIELD      CLOUDY    47  45  93 N6        29.69R FOG              
$$

VAZ020-022-025-037-045-261400-
WEST CENTRAL AND SOUTHWEST VIRGINIA
  
CITY           SKY/WX    TMP DP  RH WIND       PRES   REMARKS
STAUNTON*      CLOUDY    41  39  91 N7        29.73R                  
WAYNESBORO*    CLOUDY    39  38  99 N5        29.71R                  
HOT SPRINGS VA FOG       35  35 100 E5        29.64R VSB<1/4          
LYNCHBURG      LGT RAIN  41  40  96 N5        29.71R                  
DANVILLE       LGT RAIN  45  41  86 NE9       29.70R                  
SOUTH BOSTON*  CLOUDY    44  42  95 NE5       29.70S                  
MARTINSVILLE   DRIZZLE   44  44 100 N5        29.72R                  
ROANOKE        LGT RAIN  44  41  89 NE6       29.72R                  
BLACKSBURG     CLOUDY    40  39  97 NE3       29.71R                  
DUBLIN*        CLOUDY    42  42 100 E6        29.69R FOG              
MARION*        CLOUDY    45  43  94 NE7       29.68R FOG              
HILLSVILLE*    CLOUDY    41  41 100 CALM      29.65R                  
RICHLANDS*     HAZE      47  28  49 NW5       29.66R VSB<1/4          
WISE*          DRIZZLE   46  46 100 NW3       29.69R                  
ABINGDON*      CLOUDY    58  56  94 N8        29.64R                  
$$

MDZ021>025-VAZ099-100-261400-
SOUTHERN MARYLAND AND THE DELMARVA PENINSULA
  
CITY           SKY/WX    TMP DP  RH WIND       PRES   REMARKS
PATUXENT RIVER CLOUDY    48  44  86 N8        29.68S                  
BAY BRIDGE APT   N/A    N/A N/A N/A N8        29.69R                  
LEONARDTOWN    CLOUDY    45  41  87 N3        29.69F                  
DOVER          CLOUDY    49  38  65 N10       29.63S                  
GEORGETOWN     CLOUDY    46  42  86 VRB6      29.67S                  
EASTON         MOSUNNY   50  43  76 N7        29.71                   
CAMBRIDGE      CLOUDY    48  45  87 CALM      29.67S                  
SALISBURY      CLOUDY    44  41  89 NW5       29.67S                  
OCEAN CITY     CLOUDY    44  40  85 NW5       29.67S                  
WALLOPS ISLAND LGT RAIN  44  42  93 N7        29.67R                  
ACCOMACK*      RAIN      45  36  70 N5        29.65F                  
$$

NCZ012>017-030>032-261400-
NORTH CENTRAL AND EASTERN NORTH CAROLINA
  
CITY           SKY/WX    TMP DP  RH WIND       PRES   REMARKS
ROANOKE RAPIDS DRIZZLE   46  45  93 N8        29.67R                  
RALEIGH        DRIZZLE   47  45  93 NE8       29.68R FOG              
ELIZABETH CITY CLOUDY    48  46  93 N13       29.63R                  
AHOSKIE*       RAIN      46  45  95 N6        29.68R                  
EDENTON*       DRIZZLE   47  46  93 N5        29.64R                  
CURRITUCK*     DRIZZLE   48  45  89 N9        29.63R                  
KILL DEVIL HLS CLOUDY    49  49  98 N9G18     29.60R                  
MANTEO         CLOUDY    49  48  95 NE15G23   29.60R                  
CAPE HATTERAS  CLOUDY    52  51  97 NE12G17   29.57S                  
TARBORO*       CLOUDY    48  47  94 N8        29.67R                  
GOLDSBORO      LGT RAIN  49  49 100 N5        29.63R FOG              
WASHINGTON     LGT RAIN  48  47  95 NE6       29.64R                  
GREENVILLE     CLOUDY    50  48  93 N7        29.68R                  
NEW BERN       CLOUDY    54  52  93 N7        29.62R FOG              
WILMINGTON     CLOUDY    61  59  93 NE9       29.59R FOG              
$$

VAZ048-261400-
ELSEWHERE
  
CITY           SKY/WX    TMP DP  RH WIND       PRES   REMARKS
HARRISBURG PA  MOSUNNY   50  30  46 N7        29.72R                  
BALTIMORE      MOSUNNY   51  35  54 NE7       29.69R                  
ANNAPOLIS      PTSUNNY   49  38  65 N7        29.69R                  
ANDREWS AFB    PTSUNNY   47  38  72 N7        29.69R                  
PHILADELPHIA   PTSUNNY   52  31  44 NE14G20   29.70R                  
HENDERSON NC   CLOUDY    45  43  95 N8        29.69R FOG              
GREENSBORO     DRIZZLE   44  42  93 NE9       29.67R FOG              
ROCKY MOUNT    LGT RAIN  49  48  97 N7        29.66R FOG              
$$

VAZ100-261400-
MARINE
  
STATION/POSITION TIME  TEMP    WIND        PRES    WAVE   SWELL
                       AIR SEA DIR/SP/G            HT/PER HT/PER
                 (UTC) (F)     (DEG/KT/KT) (MB)    (FT/S) (FT/S)
BRANDYWINE LGT   1200           20/ 11/ 12 1004.5F
CAPE MAY NJ      1200   49 55  360/  5/  8 1004.0S
LEWES DE         1200   46 51  320/  7/  9 1004.3F
15NM E FENWICK I 1250   47 47              1003.9R   1/ 3
OCEAN-CITY-INLET 1200   44 49  320/  3/  4 1004.2S
WACHAPREAGUE VA  1200   46 52   10/  4/  7 1004.1R
THOMAS POINT MD  1300   46 51  350/  9/ 10 1006.1R
GOOSES REEF MD   1300   46 52  350/ 10/ 14   N/A     1
COVE POINT MD    1200   45     360/  7/  9 1005.5S
SOLOMONS ISLAND  1200      54                N/A
BISHOPS HEAD MD  1200   45 53   20/  6/  8 1004.2F
PINEY POINT MD   1200           40/  5/  7   N/A
CAMBRIDGE MD     1200   46 56  220/  2/  3 1004.8R
LEWISETTA VA     1200   47 55              1004.6R
RAPPAHANNOCK LGT 1200           40/ 17/ 19 1004.2F
YORK RVR RNG VA  1200   47      60/ 13/ 16 1003.3F
YORKTOWN VA      1200   47 59   40/  9/ 12 1003.8R
JAMESTOWN VA     1300   46 63  350/  6/ 10 1004.4R
DOMINION TERM VA 1200   47      40/  6/ 10 1003.4F
KIPTOPEKE VA     1200      61   40/  5/  8   N/A
CHES BAY BRIDGE  1200   47 53   40/ 12/ 15 1002.7R
CAPE HENRY VA    1200   47      40/ 14/ 16 1002.0F
CHESAPEAKE LGHT  1200   46      40/ 14/ 15 1003.7F
WILLOUBY STN VA  1200   48      50/ 13/ 15 1004.0R
S CRANEY ISL VA  1200           50/  9/ 12 1003.5F
CAPE HENRY BUOY  1228      51                N/A     4/ 6
1ST LANDING BUOY 1240                      1004.0R
OFFSHORE WE BUOY 1211      50                N/A     5/ 6   2/ 7
64NM E OF VA BCH 1250   54 59   40/ 17/ 19 1001.4F   6/ 6   2/ 8
DUCK PIER NC     1200   48 54   30/ 21/ 23 1001.2R
44056 DUCK FRF   1211      54                N/A     5/ 6
OREGON INLET NC  1200   49 54  360/ 13/ 20 1001.8R
HATTERAS NC      1200   55 65   40/ 12/ 16 1000.6S
DIAMOND SHLS NC  1250   61 68   30/ 12/ 14 1000.8R   4/ 6   3/ 6
CAPE LOOKOUT NC  1300   57      20/  9/ 12 1001.8R
$$

Return to Home page


Western Regional Climate Center, wrcc@dri.edu